Weather Roundup
Issued by NWS Corpus Christi, TX

Home | Current Version | Previous Version | Text Only | Print | Product List | Glossary On
Versions: 1 2 3 4 5 6 7 8 9 10 11 12 13 14 15 16 17 18 19 20 21 22 23 24 25 26 27 28 29 30 31 32 33 34 35 36 37 38 39 40 41 42 43 44 45 46 47 48 49 50
521
ASUS44 KCRP 020110
HRRCRP

SOUTH TEXAS REGIONAL WEATHER ROUNDUP
NATIONAL WEATHER SERVICE CORPUS CHRISTI TX
800 PM CDT SUN MAY 01 2016


TXZ229>244-020200-
...CORPUS CHRISTI AREA OBSERVATIONS...

CITY           SKY/WX    TMP DP  RH WIND       PRES   REMARKS
CORPUS CHRISTI MOCLDY    82  74  76 E16       29.78R
NAS CORPUS CHR MOCLDY    81  77  88 E10       29.79R
ROCKPORT       PTCLDY    82  75  79 E13       29.78R
KINGSVILLE NAS CLOUDY    81  76  84 E14       29.77R
ALICE          MOCLDY    82  72  71 E10G21    29.77R
FALFURRIAS     PTCLDY    84  69  60 E8        29.75R
$$

...VICTORIA AREA OBSERVATIONS...

CITY           SKY/WX    TMP DP  RH WIND       PRES   REMARKS
VICTORIA       PTCLDY    79  71  76 N13       29.81R
BEEVILLE       CLOUDY    82  72  73 NE9       29.81R
PLEASANTON     MOCLDY    75  61  61 N7G17     29.86R
SAN ANTONIO    CLOUDY    74  58  57 NE14      29.89R
$$

...LAREDO AREA OBSERVATIONS...

CITY           SKY/WX    TMP DP  RH WIND       PRES   REMARKS
LAREDO         CLEAR     86  71  60 NE20G25   29.76R HX  91
COTULLA        PTCLDY    81  65  58 NE18      29.82R
DEL RIO        LGT RAIN  68  64  87 W12       29.90R
MCALLEN        MOCLDY    85  73  67 E18       29.74R HX  91
HEBBRONVILLE   PTCLDY    86  70  58 E13G20    29.78R HX  90
$$

...OTHER TEXAS OBSERVATIONS...

CITY           SKY/WX    TMP DP  RH WIND       PRES   REMARKS
BROWNSVILLE    MOCLDY    80  75  84 NE8       29.75R
HOUSTON        CLOUDY    73  70  90 E12       29.86R
COL. STATION   MOCLDY    75  62  64 N10       29.88R
AUSTIN         CLOUDY    72  58  61 N14       29.90R
WACO           PTCLDY    68  53  58 N9        29.95R
FORT WORTH     PTCLDY    69  49  48 N12       29.98R
WICHITA FALLS  LGT RAIN  55  51  86 N13       30.09R
LUBBOCK        CLOUDY    47  37  68 N15G25    30.17R
EL PASO        PTCLDY    60  33  36 E16       30.00R
$$

...MARINE OBSERVATIONS...

STATION/POSITION TIME  SKY/WX   TEMP    WIND        PRES    VSBY  WAVE   SWELL
                                AIR SEA DIR/SP/G                  HT/PER HT/PER
                 (UTC)          (F)     (DEG/KT/KT) (MB)    (MI)  (FT/S) (FT/S)
PORT ARANSAS     0100            79 81   80/ 14/ 15 1009.4R
BUOY 90 E PORT A 0050            78 78   60/ 12/ 14 1008.8R         4/ 8   3/ 8
BUOY 45 SE BAFFI 0050            79 80   70/ 12/ 14 1007.5R         4/ 7   3/ 7
BUOY 200 E PT IS 0050                                 N/A           6/ 7   3/ 7
BUOY 15 E GALVES 0050            75 76   90/ 17/ 23 1009.9R         6/ 5
$$




USA.gov is the U.S. government's official web portal to all federal, state and local government web resources and services.